N5RML-1 Weather Reports


Display with metric or nautical units.
time (UTC)temp
F
wind
direction
speed
MPH
gust
MPH
rain 1hr
in
rain 24hr
in
rain mn
in
humidity
%
barometer
mb
20260503232521 83 292 0.0 2.0 0.00 0.00 0.00 32 1019.8
20260503231550 83 312 1.0 3.0 0.00 0.00 0.00 31 1019.8
20260503230536 83 325 2.0 4.0 0.00 0.00 0.00 32 1019.9
20260503225526 79 334 2.0 5.0 0.00 0.00 0.00 35 1019.9
20260503224534 79 331 3.0 4.0 0.00 0.00 0.00 34 1020.0
20260503223523 79 357 3.0 5.0 0.00 0.00 0.00 35 1020.0
20260503222532 80 291 2.0 3.0 0.00 0.00 0.00 35 1020.0
20260503221541 79 229 3.0 4.0 0.00 0.00 0.00 34 1020.1
20260503220529 79 341 2.0 5.0 0.00 0.00 0.00 35 1020.2
20260503215538 79 349 3.0 5.0 0.00 0.00 0.00 34 1020.3
20260503214526 79 28 2.0 4.0 0.00 0.00 0.00 36 1020.4
20260503213554 79 267 3.0 5.0 0.00 0.00 0.00 34 1020.5
20260503212546 79 180 3.0 4.0 0.00 0.00 0.00 33 1020.7
20260503211553 78 230 2.0 5.0 0.00 0.00 0.00 33 1020.8
20260503210522 79 262 2.0 5.0 0.00 0.00 0.00 33 1021.0
20260503205550 79 64 1.0 4.0 0.00 0.00 0.00 33 1021.1
20260503204537 79 330 3.0 5.0 0.00 0.00 0.00 34 1021.3
20260503203526 79 14 3.0 5.0 0.00 0.00 0.00 33 1021.4
20260503202534 79 330 2.0 4.0 0.00 0.00 0.00 34 1021.5
20260503201523 79 37 2.0 4.0 0.00 0.00 0.00 33 1021.8
20260503200531 79 199 4.0 6.0 0.00 0.00 0.00 33 1021.8
20260503195521 79 344 4.0 6.0 0.00 0.00 0.00 33 1021.9
20260503194529 79 335 4.0 6.0 0.00 0.00 0.00 34 1022.1
20260503193536 78 326 3.0 6.0 0.00 0.00 0.00 35 1022.3
20260503192608 78 2 4.0 7.0 0.00 0.00 0.00 34 1022.5
20260503191534 79 346 4.0 7.0 0.00 0.00 0.00 34 1022.6
20260503190544 78 347 4.0 6.0 0.00 0.00 0.00 34 1022.7
20260503185532 79 308 4.0 7.0 0.00 0.00 0.00 34 1022.8
20260503184520 78 343 4.0 7.0 0.00 0.00 0.00 33 1023.0
20260503183529 78 13 3.0 5.0 0.00 0.00 0.00 34 1022.9
20260503182537 78 54 2.0 5.0 0.00 0.00 0.00 34 1023.0
20260503181526 79 350 3.0 5.0 0.00 0.00 0.00 34 1023.1
20260503180554 78 306 4.0 6.0 0.00 0.00 0.00 33 1023.2
20260503175524 78 20 2.0 4.0 0.00 0.00 0.00 33 1023.4
20260503174531 77 340 2.0 4.0 0.00 0.00 0.00 35 1023.6
20260503173521 80 336 3.0 5.0 0.00 0.00 0.00 31 1023.9
20260503172530 79 52 2.0 4.0 0.00 0.00 0.00 31 1024.1
20260503171536 77 8 3.0 6.0 0.00 0.00 0.00 32 1024.2
20260503170526 77 107 2.0 4.0 0.00 0.00 0.00 34 1024.4
20260503150529 74 30 3.0 6.0 0.00 0.00 0.00 41 1024.3
20260503130532 60 0.0 0.0 0.00 0.00 0.00 86 1023.3
20260503110536 52 0.0 0.0 0.00 0.00 0.00 81 1022.1
20260503081523 62 0.0 0.0 0.00 0.01 0.00 61 1021.6
20260503080532 63 0.0 0.0 0.00 0.01 0.00 59 1021.5
20260503072527 63 73 1.0 4.0 0.00 0.02 0.00 59 1021.1
20260503071534 64 65 1.0 2.0 0.00 0.11 0.00 58 1021.2
20260503070752 0 23 2.0 2.0 0.00 0.14 0.00 1021.2
20260503070523 64 3 2.0 3.0 0.00 0.14 0.00 56 1021.2
20260503054531 66 8 4.0 6.0 0.00 0.23 0.00 53 1021.0
20260503053542 66 37 4.0 5.0 0.00 0.38 0.00 51 1020.9
20260503052529 66 7 5.0 7.0 0.00 0.40 0.00 51 1020.7
20260503051537 66 10 4.0 7.0 0.00 0.44 0.00 51 1020.7
20260503050548 66 32 4.0 6.0 0.00 0.44 0.00 52 1021.0
20260503045534 66 37 3.0 5.0 0.00 0.47 0.47 53 1020.9
20260503044523 67 17 4.0 7.0 0.00 0.49 0.47 52 1020.8
20260503043531 67 25 5.0 8.0 0.00 0.50 0.47 51 1020.7
20260503042520 67 334 4.0 9.0 0.00 0.51 0.47 51 1020.5
20260503041528 67 324 5.0 10.0 0.00 0.51 0.47 49 1020.4
20260503040536 67 351 6.0 7.0 0.00 0.51 0.47 48 1020.3
20260503035526 67 348 5.0 9.0 0.00 0.51 0.47 50 1020.4
20260503034533 67 351 5.0 7.0 0.00 0.52 0.47 52 1020.4
20260503033523 68 5 5.0 8.0 0.00 0.56 0.47 50 1020.3
20260503032533 68 4 4.0 5.0 0.00 0.58 0.47 48 1020.1
20260503031520 68 351 4.0 6.0 0.00 0.59 0.47 49 1020.1
20260503030528 68 19 4.0 6.0 0.00 0.59 0.47 48 1020.0
20260503025537 68 17 4.0 6.0 0.00 0.59 0.47 49 1019.9
20260503024526 68 18 4.0 5.0 0.00 0.59 0.47 48 1019.8
20260503023533 68 1 6.0 8.0 0.00 0.59 0.47 46 1019.8
20260503022523 68 349 4.0 7.0 0.00 0.59 0.47 46 1019.6
20260503021532 68 6 5.0 9.0 0.00 0.59 0.47 46 1019.5
20260503020521 68 313 5.0 7.0 0.00 0.59 0.47 46 1019.4
20260503015609 68 329 6.0 11.0 0.00 0.59 0.47 47 1019.3
20260503014535 68 340 5.0 7.0 0.00 0.60 0.47 47 1019.2
20260503013529 68 346 4.0 8.0 0.00 0.60 0.47 48 1019.2
20260503012533 69 353 5.0 7.0 0.00 0.60 0.47 48 1019.0
20260503011523 69 3 4.0 6.0 0.00 0.61 0.47 48 1018.9
20260503010530 69 21 3.0 4.0 0.00 0.62 0.47 49 1018.7
20260503005519 69 0 4.0 6.0 0.00 0.62 0.47 48 1018.6
20260503004527 69 351 3.0 5.0 0.00 0.62 0.47 48 1018.4
20260503003536 70 331 3.0 7.0 0.00 0.62 0.47 46 1018.3
20260503002545 70 352 4.0 6.0 0.00 0.65 0.47 44 1018.1
20260503001532 70 342 4.0 7.0 0.00 0.70 0.47 45 1017.9
20260503000522 71 14 4.0 8.0 0.00 0.79 0.47 43 1017.8
20260502235530 72 354 4.0 6.0 0.00 0.80 0.47 43 1017.8
20260502234522 73 23 4.0 6.0 0.00 0.81 0.47 41 1017.6
20260502233527 75 335 4.0 6.0 0.00 0.86 0.47 40 1017.4